Hourly Weather Roundup
Issued by NWS Central Illinois

Home | Current Version | Previous Version | Text Only | Print | Product List | Glossary On
Versions: 1 2 3 4 5 6 7 8 9 10 11 12 13 14 15 16 17 18 19 20 21 22 23 24 25 26 27 28 29 30 31 32 33 34 35 36 37 38 39 40 41 42 43 44 45 46 47 48 49 50
000
NZUS43 KILX 261010
HWRILX

AREA WEATHER ROUNDUP
NATIONAL WEATHER SERVICE, LINCOLN IL
400 AM CST WED NOV 26 2014


CITY           SKY/WX    TMP DP  RH WIND       PRES   REMARKS
BLOOMINGTON    CLEAR     21  19  92 S8        30.12S WCI  11
CHAMPAIGN      CLEAR     21  18  88 E9        30.12F WCI  11
DECATUR        CLEAR     23  19  85 CALM      30.13S
FLORA          CLEAR     23  22  99 CALM      30.15F
GALESBURG      MOCLDY    22  21  96 E5        30.07F WCI  15
JACKSONVILLE   CLOUDY    30  26  87 SE8       30.08F WCI  22
LACON          PTCLDY    15  13  90 CALM      30.13R
LAWRENCEVILLE  CLEAR     24  22  91 E7        30.16F WCI  16
LITCHFIELD     FAIR      25  22  91 SE7       30.10F WCI  17
$$


CITY           SKY/WX    TMP DP  RH WIND       PRES   REMARKS
LINCOLN        CLEAR     23  21  93 SE5       30.14S WCI  17
MACOMB         MOCLDY    25  24  95 SE5       30.09S WCI  19
MATTOON        CLEAR     22  19  89 SE6       30.11F WCI  14
MT CARMEL AP   CLEAR     28  25  86 CALM      30.15F
OLNEY-NOBLE AP CLEAR     23  21  93 CALM      30.15F
PARIS          CLEAR     24  23  96 CALM      30.15F
PEORIA         PTCLDY    24  19  81 SE3       30.12S
PONTIAC        CLEAR     22  20  92 E8        30.14S WCI  12
RANTOUL        CLEAR     22  20  90 E8        30.13F WCI  13
ROBINSON       CLEAR     23  22  93 E5        30.17F WCI  17
SPRINGFIELD    PTCLDY    25  23  92 SE6       30.11F WCI  18
TAYLORVILLE    CLEAR     25  23  93 SE6       30.11F WCI  18
$$

...REGIONAL REPORTS...


CITY           SKY/WX    TMP DP  RH WIND       PRES   REMARKS
CHICAGO O`HARE CLEAR     19  15  84 E8        30.14F WCI   9
KANKAKEE       CLEAR    N/A N/A N/A E7        30.16F
MOLINE         MOCLDY    17  13  84 E7        30.08F WCI   8
MOUNT VERNON   CLEAR     21  18  86 CALM      30.14S
PITTSFIELD     CLOUDY    29  26  88 SE7       30.07F WCI  22
QUINCY         CLOUDY    27  22  81 SE7       30.04F WCI  19
ROCKFORD       PTCLDY    13   8  81 CALM      30.15F HAZE
$$


CITY           SKY/WX    TMP DP  RH WIND       PRES   REMARKS
BURLINGTON     PTCLDY    25  22  88 SE5       30.05F WCI  19
CEDAR RAPIDS   MOCLDY    22  20  92 SE8       30.02F WCI  12
DES MOINES     LGT SNOW  31  27  85 SE9       29.90F FOG     WCI  23
KIRKSVILLE     CLOUDY    29  22  75 SE9       29.99F WCI  20
OTTUMWA        CLOUDY    28  19  69 SE10      29.98F WCI  19
ST LOUIS       CLOUDY    30  25  81 E5        30.09F WCI  25
$$


CITY           SKY/WX    TMP DP  RH WIND       PRES   REMARKS
TERRE HAUTE    PTCLDY    23  19  85 E5        30.16F WCI  17
EVANSVILLE     CLEAR     26  22  84 CALM      30.16F
INDIANAPOLIS   CLOUDY    27  21  78 E6        30.13F WCI  20
LAFAYETTE      CLOUDY    25  20  81 N5        30.16F WCI  19
MADISON        PTCLDY    10   6  84 CALM      30.14F
MILWAUKEE      CLEAR     15  11  83 CALM      30.15F FOG
$$




USA.gov is the U.S. government's official web portal to all federal, state and local government web resources and services.